Torna al catalogo

PLATERO

AttivoScienzaPO
NORAD 58262·PAYLOAD·🇪🇸 Spain

Lanciato Nov 11, 2023 da Vandenberg Space Force Base

Loading…

Prossimi Passaggi (prossime 24 ore)

TLE

AggiornatoSource: Space-Track

Epoca: Sep 14, 2026, 13:55 UTC

1 58262U 23174G   26257.58053941  .00044677  00000-0  36853-3 0  9993
2 58262  97.3923   0.2355 0004888 117.2915 242.8845 15.70215042160183

Traccia PLATERO in tempo reale con AllMySat

Download on the App Store